Location: *
(50.3194°N, 7.1067°E)
Time: 22:17:40
(UTC+00:00)

USA 234 - Pass Details

Date: 22 September 2019
Orbit: 1103 x 1105 km, 123.0° (Epoch: 17 October)

Event Time Altitude Azimuth Distance (km) Brightness Sun altitude
Exits shadow 22:37:17 41° 308° (NW) 1,542 4.2 -38.6°
Drops below altitude 10° 22:41:21 10° 302° (WNW) 2,968 5.9 -38.7°
Sets 22:43:50 0° 301° (WNW) 3,928 6.7 -38.8°
